User: anonymous   Login
Location: Unspecified
(0.0000°N, 0.0000°E)
Time: 21:55:56
(UTC+00:00)
Language:

SEEDS - Orbit

View from above orbital plane
View from above orbital plane
View from above satellite
View from above satellite

Ground track
Ground track

The orbit data is extracted from the following two-line orbital elements,

1 32791U 08021J   17082.56366995 +.00000620 +00000-0 +69407-4 0  9998
2 32791 097.5726 114.8090 0015048 079.8037 280.4878 14.90129072482315
Epoch (UTC): 23 March 2017 13:31:41
Eccentricity: 0.0015048
inclination: 97.5726°
perigee height: 587 km
apogee height: 608 km
right ascension of ascending node: 114.8090°
argument of perigee: 79.8037°
revolutions per day: 14.90129072
mean anomaly at epoch: 280.4878°
orbit number at epoch: 48231

The dashed part of the orbit path shows where the satellite is in the earth's shadow,  

DLR